Flag for China Weather past 2 weeks in Guangzhou, Guangdong, China

Now
46 °F

Fog.


Feels Like: 46 °F
Forecast: 44 / 67 °F
Wind: 1 mph from North

Location: Canton Airport

Current Time: Dec 20, 2014 at 1:34:47 AM

Latest Report: Dec 20, 2014 at 1:00 AM


Visibility: 3 mi

Pressure: 30.21 "Hg

Humidity: 93%

Dew point: 45 °F

Location of GuangzhouLocation

Historic Weather in Guangzhou — Graph

°F

Guangzhou temperature yesterday

Maximum temperature yesterday: 57 °F (at 12:00 AM)
Minimum temperature yesterday: 48 °F (at 10:30 PM)
Average temperature yesterday: 53 °F

Past Weeks' High & Low Weather Summary

 TemperatureHumidityPressure
High75 °F (Dec 9, 3:00 PM)94% (Dec 7, 9:00 AM)30.48 "Hg (Dec 7, 9:00 AM)
Low43 °F (Dec 18, 6:30 AM)12% (Dec 17, 1:00 PM)30.04 "Hg (Dec 10, 2:30 PM)
Average58 °F52%30.23 "Hg
* Reported Midnight between Dec 4 and Dec 5 — Dec 20 12:30 AM, Guangzhou, Weather by CustomWeather, © 2014

Note: Actual official high and low records may vary slightly from our data, if they occured in-between our weather recording intervals... More about our weather records

Advertising

Guangzhou weather history for previous 24 hours

 ConditionsComfort  
Time TempWeatherWind HumidityBarometerVisibility
12:30 AM
Dec 20
48 °FFog.1 mph94%30.24 "Hg3 mi
12:00 AM48 °FFog.1 mph94%30.24 "Hg3 mi
11:30 PM
Dec 19
48 °FFog.3 mph94%30.24 "Hg3 mi
11:00 PM48 °FFog.1 mph94%30.24 "Hg3 mi
10:30 PM48 °FFog.3 mph94%30.24 "Hg3 mi
10:00 PM50 °FClear.1 mph88%30.24 "Hg4 mi
9:30 PM50 °FClear.No wind94%30.24 "Hg4 mi
9:00 PM50 °FClear.No wind88%30.24 "Hg4 mi
8:30 PM50 °FClear.No wind88%30.24 "Hg4 mi
8:00 PM52 °FClear.1 mph82%30.24 "Hg4 mi
7:30 PM52 °FClear.3 mph88%30.21 "Hg4 mi
7:00 PM52 °FClear.3 mph82%30.21 "Hg4 mi
6:30 PM54 °FClear.1 mph77%30.21 "Hg4 mi
6:00 PM54 °FClear.1 mph77%30.21 "Hg4 mi
5:30 PM54 °FClear.3 mph77%30.21 "Hg4 mi
5:00 PM55 °FClear.1 mph67%30.21 "Hg4 mi
4:30 PM55 °FClear.1 mph63%30.21 "Hg4 mi
4:00 PM55 °FLight rain. Clear.3 mph63%30.21 "Hg4 mi
3:30 PM55 °FLight rain. Clear.3 mph55%30.21 "Hg6 mi
3:00 PM55 °FLight rain. Clear.3 mph51%30.24 "Hg5 mi
2:30 PM55 °FLight rain. Clear.6 mph55%30.24 "Hg6 mi
2:00 PM55 °FLight rain. Clear.3 mph55%30.24 "Hg5 mi
1:30 PM55 °FLight rain. Overcast.3 mph59%30.24 "Hg5 mi
1:00 PM55 °FLight rain. Overcast.1 mph59%30.27 "Hg4 mi
12:30 PM54 °FLight rain. Overcast.No wind63%30.30 "Hg5 mi
11:30 AM54 °FLight rain. Overcast.3 mph67%30.33 "Hg5 mi
11:00 AM54 °FLight rain. Clear.6 mph63%30.33 "Hg5 mi
10:30 AM54 °FLight rain. Clear.No wind72%30.33 "Hg5 mi
10:00 AM54 °FSunny.1 mph72%30.33 "Hg10 mi
9:30 AM52 °FSunny.No wind77%30.33 "Hg10 mi
9:00 AM52 °FOvercast.3 mph77%30.33 "HgN/A
8:30 AM52 °FOvercast.1 mph82%30.33 "Hg6 mi
8:00 AM52 °FOvercast.3 mph82%30.30 "Hg5 mi
7:30 AM52 °FOvercast.1 mph82%30.30 "Hg5 mi
7:00 AM52 °FOvercast.1 mph88%30.30 "Hg5 mi
6:30 AM52 °FLight rain. Overcast.1 mph88%30.30 "Hg4 mi
6:00 AM54 °FLight rain. Overcast.3 mph82%30.27 "Hg4 mi
5:30 AM54 °FLight rain. Overcast.1 mph82%30.27 "Hg4 mi
5:00 AM54 °FLight rain. Overcast.1 mph82%30.27 "Hg4 mi
4:30 AM54 °FLight rain. Overcast.No wind77%30.27 "Hg5 mi
4:00 AM54 °FLight rain. Overcast.3 mph82%30.27 "Hg5 mi
3:30 AM54 °FLight rain. Overcast.No wind77%30.27 "Hg5 mi
3:00 AM55 °FLight rain. Overcast.No wind63%30.27 "Hg4 mi
2:30 AM55 °FLight rain. Overcast.No wind59%30.27 "Hg5 mi
2:00 AM55 °FLight rain. Overcast.No wind59%30.27 "Hg5 mi
1:30 AM57 °FLight rain. Overcast.No wind55%30.27 "Hg5 mi
1:00 AM57 °FOvercast.No wind55%30.30 "Hg5 mi
Weather by CustomWeather, © 2014

See weather overviewHow to use our weather pages